Location: Cherry Springs State Park
(41.6616°N, 77.8240°W)
Time: 11:10:58
(UTC-04:00)

Amateur Radio Satellites - All Passes

Search period start: 18 April 2015 10:40
Search period end: 19 April 2015 10:40
Location: Cherry Springs State Park, 41.6616°N, 77.8240°W

Satellite Date Start Highest point End Downlink Frequencies (MHz)
Time Altitude Azimuth
O/OREOS (USA 219) 18 Apr 10:48:14 10:52:36 48° 252° (WSW) 10:56:53 437.305
COMPASS 1 18 Apr 10:50:45 10:54:46 41° 288° (WNW) 10:58:43 437.405
BUGSAT 1 18 Apr 10:51:40 10:54:51 23° 69° (ENE) 10:58:07 437.445
HUMSAT D 18 Apr 10:52:21 10:55:34 21° 92° (E) 10:58:54 437.325/437.525
QB50P2 18 Apr 10:53:06 10:56:57 36° 71° (ENE) 11:00:52 145.880/145.840
CANX-2 18 Apr 10:57:40 11:01:09 23° 291° (WNW) 11:04:29 2200.000
VELOX 1 18 Apr 11:01:53 11:04:20 15° 90° (E) 11:06:59 145.980
FUNcube-1 18 Apr 11:02:22 11:06:53 55° 99° (E) 11:11:24 145.935
SEEDS 18 Apr 11:03:22 11:06:58 26° 291° (WNW) 11:10:28 437.485
CUTE 1.7 + AOD 2 18 Apr 11:08:20 11:11:33 20° 293° (WNW) 11:14:38 437.475
Cosmos 2491 18 Apr 11:09:55 11:18:46 71° 79° (E) 11:27:35 435.465 / 435.565
TIGRISAT 18 Apr 11:10:11 11:14:35 74° 259° (WSW) 11:19:09 435.000
UNISAT 6 18 Apr 11:10:34 11:14:59 71° 259° (WSW) 11:19:33 437.425
AISAT 18 Apr 11:15:33 11:18:58 22° 93° (E) 11:22:29 437.250
POPSAT HIP 1 18 Apr 11:16:11 11:20:20 65° 75° (ENE) 11:24:32 437.405
NANOSAT C BR1 18 Apr 11:16:52 11:21:01 66° 75° (ENE) 11:25:13 145.865
UKube-1 18 Apr 11:21:52 11:26:05 51° 100° (E) 11:30:18 .
CUBEBUG 2 18 Apr 11:22:32 11:27:12 61° 286° (WNW) 11:31:54 437.445
ZACube-1 18 Apr 11:24:13 11:28:50 86° 286° (WNW) 11:33:27 437.345
ESTCUBE 1 18 Apr 11:25:58 11:28:28 15° 90° (E) 11:31:10 437.505/2401.250
CUBEBUG 1 18 Apr 11:31:57 11:34:21 15° 90° (E) 11:36:57 437.445
PCSat 18 Apr 11:37:18 11:42:24 40° 307° (NW) 11:47:31 145.827
AAUSAT CUBESAT 2 18 Apr 11:41:45 11:44:14 15° 295° (WNW) 11:46:33 437.432
POLYITAN 1 18 Apr 11:41:59 11:46:09 62° 259° (W) 11:50:21 437.675
Oscar 11 18 Apr 11:44:07 11:47:56 29° 290° (WNW) 11:51:39 145.826/435.025
ANTELSAT 18 Apr 11:53:14 11:56:58 25° 267° (W) 12:00:43 437.575/2403.000
DUCHIFAT 1 18 Apr 11:53:39 11:57:41 47° 261° (W) 12:01:45 145.980
50 SAT 18 Apr 11:56:11 12:00:15 66° 101° (E) 12:04:16 437.505
DOVE 4 18 Apr 11:58:27 11:59:26 10° 298° (WNW) 12:00:08 437.250
DX 1 18 Apr 12:02:57 12:07:12 52° 287° (WNW) 12:11:25 434.975-435.025
CINEMA 3 18 Apr 12:05:26 12:08:18 15° 295° (WNW) 12:11:00 145.822/145.860
QB50P1 18 Apr 12:05:57 12:09:47 33° 263° (W) 12:13:37 145.935-145.965
UWE-3 18 Apr 12:07:03 12:10:59 27° 291° (WNW) 12:14:52 435.000/436.395/437.385
DELFI C3 18 Apr 12:10:38 12:13:29 18° 293° (WNW) 12:16:13 145.870
HO-68 18 Apr 12:17:36 12:21:51 16° 306° (NW) 12:25:46 435.675
YUBILEINY 18 Apr 12:18:23 12:27:12 80° 95° (E) 12:36:04 435.215
BUGSAT 1 18 Apr 12:26:47 12:30:16 27° 265° (W) 12:33:42 437.445
HUMSAT D 18 Apr 12:27:28 12:31:28 35° 289° (WNW) 12:35:24 437.325/437.525
QB50P2 18 Apr 12:29:59 12:33:02 19° 268° (W) 12:35:58 145.880/145.840
VELOX 1 18 Apr 12:36:58 12:41:16 50° 287° (WNW) 12:45:33 145.980
FUNcube-1 18 Apr 12:39:54 12:42:49 16° 295° (WNW) 12:45:34 145.935
BEESAT 2 18 Apr 12:39:57 12:41:30 12° 37° (NE) 12:43:11 435.950
BEESAT 3 18 Apr 12:48:36 12:51:05 16° 40° (NE) 12:53:39 437.485
AISAT 18 Apr 12:51:38 12:55:41 35° 290° (WNW) 12:59:41 437.250
POPSAT HIP 1 18 Apr 12:55:53 12:56:46 10° 272° (W) 12:57:23 437.405
SO-50 18 Apr 12:56:18 12:58:33 14° 109° (ESE) 13:01:04 436.795
NANOSAT C BR1 18 Apr 12:56:46 12:57:25 10° 273° (W) 12:57:49 145.865
UKube-1 18 Apr 12:59:13 13:01:52 16° 295° (WNW) 13:04:22 .
Oscar 19 18 Apr 12:59:56 13:04:20 30° 67° (ENE) 13:08:51 437.125/150
ESTCUBE 1 18 Apr 13:01:21 13:05:44 51° 287° (WNW) 13:10:04 437.505/2401.250
AIST 1 18 Apr 13:03:26 13:07:37 52° 79° (ENE) 13:11:47
CUBEBUG 1 18 Apr 13:06:51 13:11:03 49° 287° (WNW) 13:15:15 437.445
Cosmos 2491 18 Apr 13:08:05 13:14:54 25° 278° (W) 13:21:24 435.465 / 435.565
ITAMSAT 1 18 Apr 13:18:05 13:20:52 15° 61° (ENE) 13:23:52 435.822/435.867
SPROUT 18 Apr 13:23:40 13:27:59 68° 102° (ESE) 13:32:18 437.525
TISAT 1 18 Apr 13:24:51 13:29:00 55° 100° (E) 13:33:11 437.305
50 SAT 18 Apr 13:33:20 13:34:36 11° 296° (WNW) 13:35:40 437.505
BEESAT 2 18 Apr 14:16:13 14:20:22 81° 56° (ENE) 14:24:27 435.950
YUBILEINY 18 Apr 14:18:27 14:25:14 23° 298° (WNW) 14:31:41 435.215
Cosmos 2504 18 Apr 14:22:50 14:31:11 52° 90° (E) 14:39:43 435.465 / 435.565
ITUPSAT 1 18 Apr 14:23:51 14:28:14 35° 97° (E) 14:32:36 437.325
RS-15 18 Apr 14:24:39 14:31:01 19° 101° (E) 14:38:10 29.354- 29.394
BEESAT 3 18 Apr 14:25:30 14:29:35 66° 240° (WSW) 14:33:35 437.485
JAS-2 18 Apr 14:26:00 14:29:51 15° 55° (NE) 14:34:05 435.910
AIST 2 18 Apr 14:26:16 14:30:12 36° 50° (NE) 14:34:06 435.215
SO-50 18 Apr 14:33:54 14:38:32 70° 305° (NW) 14:43:22 436.795
Gurwin Techsat 1B 18 Apr 14:36:19 14:41:32 64° 74° (ENE) 14:46:50 435.225
Oscar 19 18 Apr 14:38:59 14:43:38 33° 264° (W) 14:48:16 437.125/150
AO-7 18 Apr 14:41:20 14:47:37 26° 55° (NE) 14:54:08 29.400- 29.500
AIST 1 18 Apr 14:43:00 14:44:51 12° 274° (W) 14:46:29
ISS 18 Apr 14:54:02 14:56:54 29° 137° (SE) 14:59:49 145.825
ITAMSAT 1 18 Apr 14:54:38 14:59:49 74° 257° (WSW) 15:05:02 435.822/435.867
BEESAT 18 Apr 14:59:47 15:04:36 85° 106° (ESE) 15:09:21 436.000
SWISSCUBE 18 Apr 15:00:53 15:05:40 86° 288° (WNW) 15:10:26 437.505
SPROUT 18 Apr 15:01:51 15:03:35 12° 297° (WNW) 15:05:07 437.525
TISAT 1 18 Apr 15:02:07 15:04:24 14° 295° (WNW) 15:06:32 437.305
STARS 18 Apr 15:10:37 15:12:27 13° 89° (E) 15:14:32 437.465
HORYU 2 18 Apr 15:12:17 15:16:06 29° 68° (ENE) 15:19:59 437.375
KKS-1 18 Apr 15:30:51 15:34:54 33° 97° (E) 15:38:59 437.445
ITUPSAT 1 18 Apr 16:02:04 16:05:59 25° 293° (WNW) 16:09:48 437.325
AIST 2 18 Apr 16:05:14 16:08:38 23° 247° (WSW) 16:11:54 435.215
JAS-2 18 Apr 16:06:00 16:13:40 66° 72° (ENE) 16:21:25 435.910
Cosmos 2504 18 Apr 16:16:53 16:24:59 37° 290° (WNW) 16:33:00 435.465 / 435.565
SO-50 18 Apr 16:17:39 16:20:04 13° 327° (NNW) 16:22:22 436.795
Gurwin Techsat 1B 18 Apr 16:18:42 16:22:04 16° 271° (W) 16:25:13 435.225
ISS 18 Apr 16:30:10 16:33:13 36° 333° (NNW) 16:36:18 145.825
RS-15 18 Apr 16:30:59 16:41:51 83° 120° (ESE) 16:53:00 29.354- 29.394
AO-7 18 Apr 16:31:24 16:39:42 78° 253° (WSW) 16:48:02 29.400- 29.500
MOZHAYETS 4 18 Apr 16:37:36 16:38:55 11° 87° (E) 16:40:30
BEESAT 18 Apr 16:40:05 16:41:49 12° 299° (WNW) 16:43:17 436.000
SWISSCUBE 18 Apr 16:41:57 16:42:52 10° 300° (WNW) 16:43:30 437.505
GONETS M04 18 Apr 16:41:59 16:48:43 27° 83° (E) 16:55:47
STARS 18 Apr 16:45:00 16:49:24 61° 286° (WNW) 16:53:46 437.465
HORYU 2 18 Apr 16:48:52 16:52:43 27° 265° (W) 16:56:33 437.375
Cubesat XI-IV 18 Apr 16:56:02 16:56:57 11° 58° (ENE) 16:58:11 437.490
KKS-1 18 Apr 17:07:47 17:11:25 24° 292° (WNW) 17:14:56 437.445
JAS-2 18 Apr 17:52:44 17:59:14 27° 270° (W) 18:05:34 435.910
ISS 18 Apr 18:08:17 18:10:18 15° 353° (N) 18:12:19 145.825
MOZHAYETS 4 18 Apr 18:12:09 18:16:45 71° 285° (WNW) 18:21:19
CUTE-I 18 Apr 18:23:51 18:29:06 64° 73° (ENE) 18:34:24 437.470
AO-7 18 Apr 18:29:34 18:34:01 14° 274° (W) 18:37:53 29.400- 29.500
Cubesat XI-IV 18 Apr 18:30:56 18:36:15 75° 75° (ENE) 18:41:36 437.490
GONETS M04 18 Apr 18:36:15 18:44:56 66° 282° (WNW) 18:53:43
PCSat 18 Apr 18:41:40 18:46:16 28° 48° (NE) 18:50:57 145.827
AUBIESAT-1 18 Apr 18:44:32 18:47:57 22° 97° (E) 18:51:14 437.475
RS-15 18 Apr 18:45:51 18:55:39 35° 327° (NNW) 19:05:35 29.354- 29.394
Cosmos 2499 18 Apr 19:08:14 19:16:13 41° 88° (E) 19:24:18 435.465 / 435.565
HO-68 18 Apr 19:12:16 19:16:22 17° 54° (NE) 19:20:47 435.675
DANDE 18 Apr 19:13:10 19:15:57 76° 280° (W) 19:19:27 436.750
CUSAT 1 18 Apr 19:25:54 19:28:43 33° 289° (WNW) 19:32:11 437.405
CUBESAT XI-V 18 Apr 19:26:04 19:30:35 54° 99° (E) 19:35:06 437.345
M-CUBED/EXP-1 PRIME 18 Apr 19:28:35 19:33:08 80° 107° (ESE) 19:37:16 437.505
STRAND 1 18 Apr 19:35:01 19:39:32 32° 96° (E) 19:44:06 437.568
BRITE-PL 18 Apr 19:42:19 19:45:12 19° 67° (ENE) 19:48:12 437.365/2234.400
ISS 18 Apr 19:45:19 19:47:37 18° 13° (NNE) 19:49:56 145.825
CUTE-I 18 Apr 20:06:20 20:09:44 16° 271° (W) 20:12:53 437.470
COMPASS 1 18 Apr 20:08:53 20:10:43 13° 64° (ENE) 20:12:45 437.405
GOMX 1 18 Apr 20:10:03 20:13:22 24° 68° (ENE) 20:16:49 467.674
PRISM 18 Apr 20:11:12 20:15:19 74° 285° (WNW) 20:19:24 437.425
Cubesat XI-IV 18 Apr 20:14:14 20:17:02 14° 272° (W) 20:19:32 437.490
CANX-2 18 Apr 20:15:01 20:18:26 24° 69° (ENE) 20:21:56 2200.000
AUBIESAT-1 18 Apr 20:18:49 20:22:52 34° 296° (WNW) 20:26:35 437.475
SEEDS 18 Apr 20:20:23 20:23:32 21° 68° (ENE) 20:26:48 437.485
PCSat 18 Apr 20:24:44 20:29:56 47° 247° (WSW) 20:35:04 145.827
CUTE 1.7 + AOD 2 18 Apr 20:25:09 20:28:47 28° 70° (ENE) 20:32:30 437.475
VERMONT LUNAR 18 Apr 20:34:00 20:36:59 29° 157° (SSE) 20:39:59 437.305
GONETS M04 18 Apr 20:39:55 20:44:03 13° 306° (NW) 20:47:35
CUBEBUG 2 18 Apr 20:47:38 20:49:07 12° 63° (ENE) 20:50:49 437.445
HO-68 18 Apr 20:55:57 21:03:08 81° 72° (ENE) 21:10:23 435.675
AAUSAT CUBESAT 2 18 Apr 20:55:58 20:59:48 35° 71° (ENE) 21:03:40 437.432
Cosmos 2499 18 Apr 21:00:50 21:09:19 47° 287° (WNW) 21:17:41 435.465 / 435.565
Oscar 11 18 Apr 21:03:33 21:06:48 21° 67° (ENE) 21:10:09 145.826/435.025
RS-15 18 Apr 21:04:38 21:12:40 21° 1° (N) 21:20:56 29.354- 29.394
CUBESAT XI-V 18 Apr 21:04:45 21:07:38 16° 295° (WNW) 21:10:22 437.345
M-CUBED/EXP-1 PRIME 18 Apr 21:05:27 21:07:19 12° 305° (NW) 21:08:56 437.505
STRAND 1 18 Apr 21:14:15 21:18:43 31° 292° (WNW) 21:23:06 437.568
BRITE-PL 18 Apr 21:19:46 21:23:35 34° 263° (W) 21:27:23 437.365/2234.400
ISS 18 Apr 21:21:16 21:24:30 60° 32° (NNE) 21:27:43 145.825
PHONESAT 2.4 18 Apr 21:22:18 21:25:23 27° 156° (SSE) 21:28:29 2401.200-2431.200
DELFI C3 18 Apr 21:22:59 21:26:16 24° 69° (ENE) 21:29:39 145.870
DOVE 4 18 Apr 21:23:50 21:27:58 78° 258° (WSW) 21:32:16 437.250
DX 1 18 Apr 21:24:53 21:27:00 14° 64° (ENE) 21:29:18 434.975-435.025
SO-50 18 Apr 21:25:32 21:29:02 19° 39° (NE) 21:32:38 436.795
UWE-3 18 Apr 21:28:18 21:31:48 26° 68° (ENE) 21:35:28 435.000/436.395/437.385
CINEMA 3 18 Apr 21:29:02 21:33:10 59° 74° (ENE) 21:37:30 145.822/145.860
COMPASS 1 18 Apr 21:41:47 21:45:58 60° 260° (W) 21:50:11 437.405
HUMSAT D 18 Apr 21:45:23 21:47:49 16° 65° (ENE) 21:50:27 437.325/437.525
GOMX 1 18 Apr 21:47:55 21:51:29 27° 266° (W) 21:55:03 467.674
CANX-2 18 Apr 21:50:26 21:54:16 30° 265° (W) 21:58:04 2200.000
SEEDS 18 Apr 21:55:14 21:59:09 35° 264° (W) 22:03:05 437.485
FUNcube-1 18 Apr 21:58:30 22:02:30 42° 72° (ENE) 22:06:39 145.935
VELOX 1 18 Apr 22:00:23 22:02:48 15° 64° (ENE) 22:05:24 145.980
CUTE 1.7 + AOD 2 18 Apr 22:01:03 22:04:42 26° 266° (W) 22:08:17 437.475
VERMONT LUNAR 18 Apr 22:10:55 22:14:18 69° 174° (S) 22:17:40 437.305
AISAT 18 Apr 22:14:04 22:17:20 21° 67° (ENE) 22:20:43 437.250
UKube-1 18 Apr 22:16:55 22:21:01 44° 72° (ENE) 22:25:09 .
Cosmos 2491 18 Apr 22:19:46 22:23:55 15° 77° (ENE) 22:28:40 435.465 / 435.565
ZACube-1 18 Apr 22:20:21 22:24:36 76° 76° (ENE) 22:28:59 437.345
CUBEBUG 2 18 Apr 22:21:02 22:25:15 69° 259° (W) 22:29:39 437.445
ESTCUBE 1 18 Apr 22:26:19 22:28:57 16° 65° (ENE) 22:31:44 437.505/2401.250
YUBILEINY 18 Apr 22:28:43 22:36:48 40° 71° (ENE) 22:44:55 435.215
CUBEBUG 1 18 Apr 22:29:09 22:31:19 14° 64° (ENE) 22:33:40 437.445
AAUSAT CUBESAT 2 18 Apr 22:32:24 22:35:33 20° 268° (W) 22:38:37 437.432
Oscar 11 18 Apr 22:38:47 22:42:48 35° 264° (W) 22:46:48 145.826/435.025
50 SAT 18 Apr 22:41:58 22:45:40 38° 72° (ENE) 22:49:26 437.505
HO-68 18 Apr 22:46:53 22:51:47 18° 272° (W) 22:56:21 435.675
DELFI C3 18 Apr 22:57:49 23:01:21 27° 265° (W) 23:04:50 145.870
ISS 18 Apr 22:58:30 23:00:35 16° 228° (SW) 23:02:34 145.825
DX 1 18 Apr 22:58:33 23:02:50 59° 260° (W) 23:07:07 434.975-435.025
PHONESAT 2.4 18 Apr 22:59:50 23:03:23 67° 173° (S) 23:06:57 2401.200-2431.200
TIGRISAT 18 Apr 23:02:13 23:05:59 24° 93° (E) 23:09:50 435.000
UNISAT 6 18 Apr 23:02:49 23:06:40 25° 93° (E) 23:10:35 437.425
POPSAT HIP 1 18 Apr 23:03:56 23:04:44 11° 88° (E) 23:05:48 437.405
NANOSAT C BR1 18 Apr 23:04:20 23:05:09 11° 88° (E) 23:06:16 145.865
UWE-3 18 Apr 23:04:34 23:08:17 28° 266° (W) 23:12:03 435.000/436.395/437.385
SO-50 18 Apr 23:05:13 23:10:11 75° 239° (WSW) 23:15:04 436.795
CINEMA 3 18 Apr 23:09:20 23:10:57 12° 273° (W) 23:12:21 145.822/145.860
HUMSAT D 18 Apr 23:19:12 23:23:14 47° 261° (W) 23:27:21 437.325/437.525
RS-15 18 Apr 23:19:29 23:29:39 36° 34° (NE) 23:40:24 29.354- 29.394
O/OREOS (USA 219) 18 Apr 23:22:39 23:25:45 19° 102° (ESE) 23:28:59 437.305
POLYITAN 1 18 Apr 23:27:55 23:31:10 21° 93° (E) 23:34:30 437.675
VELOX 1 18 Apr 23:34:40 23:38:58 55° 259° (W) 23:43:19 145.980
FUNcube-1 18 Apr 23:36:16 23:39:07 17° 270° (W) 23:41:53 145.935
DUCHIFAT 1 18 Apr 23:38:28 23:42:03 26° 95° (E) 23:45:40 145.980
ANTELSAT 18 Apr 23:43:57 23:48:41 67° 101° (E) 23:53:22 437.575/2403.000
VERMONT LUNAR 18 Apr 23:48:25 23:51:46 61° 190° (S) 23:55:05 437.305
AISAT 18 Apr 23:49:40 23:53:44 36° 263° (W) 23:57:49 437.250
QB50P1 18 Apr 23:50:34 23:54:31 36° 97° (E) 23:58:30 145.935-145.965
UKube-1 18 Apr 23:54:38 23:57:26 16° 269° (W) 00:00:05 .
ESTCUBE 1 19 Apr 00:00:59 00:05:26 55° 260° (W) 00:09:54 437.505/2401.250
CUBEBUG 1 19 Apr 00:03:00 00:07:16 57° 260° (W) 00:11:34 437.445
BUGSAT 1 19 Apr 00:08:07 00:11:58 38° 98° (E) 00:15:52 437.445
Cosmos 2491 19 Apr 00:10:50 00:19:31 81° 96° (E) 00:28:19 435.465 / 435.565
QB50P2 19 Apr 00:13:34 00:17:52 69° 102° (ESE) 00:22:09 145.880/145.840
TISAT 1 19 Apr 00:17:20 00:21:15 41° 72° (ENE) 00:25:14 437.305
Cosmos 2504 19 Apr 00:17:28 00:22:36 18° 59° (ENE) 00:27:55 435.465 / 435.565
SPROUT 19 Apr 00:17:59 00:22:07 53° 74° (ENE) 00:26:19 437.525
50 SAT 19 Apr 00:18:10 00:20:44 16° 269° (W) 00:23:09 437.505
YUBILEINY 19 Apr 00:25:33 00:33:47 45° 271° (W) 00:41:49 435.215
BEESAT 19 Apr 00:32:12 00:33:54 12° 61° (ENE) 00:35:50 436.000
SWISSCUBE 19 Apr 00:32:52 00:35:01 13° 62° (ENE) 00:37:24 437.505
POPSAT HIP 1 19 Apr 00:36:53 00:41:09 67° 285° (WNW) 00:45:24 437.405
NANOSAT C BR1 19 Apr 00:37:18 00:41:32 66° 285° (WNW) 00:45:46 145.865
PHONESAT 2.4 19 Apr 00:38:02 00:41:35 65° 190° (S) 00:45:07 2401.200-2431.200
TIGRISAT 19 Apr 00:38:30 00:42:50 36° 290° (WNW) 00:47:06 435.000
UNISAT 6 19 Apr 00:39:13 00:43:32 35° 290° (WNW) 00:47:45 437.425
O/OREOS (USA 219) 19 Apr 01:00:29 01:04:53 44° 298° (WNW) 01:09:17 437.305
POLYITAN 1 19 Apr 01:03:16 01:07:11 34° 289° (WNW) 01:11:03 437.675
DUCHIFAT 1 19 Apr 01:14:12 01:17:51 27° 291° (WNW) 01:21:26 145.980
ANTELSAT 19 Apr 01:22:20 01:24:58 15° 297° (WNW) 01:27:25 437.575/2403.000
VERMONT LUNAR 19 Apr 01:26:17 01:28:59 22° 206° (SSW) 01:31:37 437.305
QB50P1 19 Apr 01:26:59 01:30:11 20° 293° (WNW) 01:33:17 145.935-145.965
ITUPSAT 1 19 Apr 01:30:49 01:35:20 43° 71° (ENE) 01:39:53 437.325
RS-15 19 Apr 01:31:57 01:43:31 83° 239° (WSW) 01:55:35 29.354- 29.394
AIST 1 19 Apr 01:33:21 01:37:09 31° 91° (E) 01:40:59
BUGSAT 1 19 Apr 01:44:22 01:47:13 18° 293° (WNW) 01:49:57 437.445
QB50P2 19 Apr 01:51:35 01:53:16 12° 297° (WNW) 01:54:44 145.880/145.840
TISAT 1 19 Apr 01:54:35 01:57:18 16° 269° (W) 01:59:52 437.305
SPROUT 19 Apr 01:56:25 01:58:37 13° 271° (W) 02:00:36 437.525
BEESAT 19 Apr 02:06:21 02:11:09 83° 259° (WSW) 02:15:59 436.000
SWISSCUBE 19 Apr 02:07:32 02:12:21 74° 258° (WSW) 02:17:10 437.505
STARS 19 Apr 02:08:34 02:10:20 13° 63° (ENE) 02:12:19 437.465
Cosmos 2504 19 Apr 02:09:15 02:17:37 89° 82° (E) 02:25:18 435.465 / 435.565
Cosmos 2491 19 Apr 02:10:59 02:17:37 22° 298° (WNW) 02:23:56 435.465 / 435.565
PHONESAT 2.4 19 Apr 02:16:32 02:19:34 26° 205° (SSW) 02:22:34 2401.200-2431.200
KKS-1 19 Apr 02:29:24 02:33:17 31° 69° (ENE) 02:37:14 437.445
Oscar 19 19 Apr 02:49:34 02:54:48 85° 103° (ESE) 03:00:01 437.125/150
GONETS M04 19 Apr 02:52:20 02:55:48 13° 53° (NE) 02:59:55
Gurwin Techsat 1B 19 Apr 02:52:54 02:57:09 25° 93° (E) 03:01:31 435.225
ITAMSAT 1 19 Apr 03:07:28 03:12:15 38° 97° (E) 03:17:05 435.822/435.867
ITUPSAT 1 19 Apr 03:09:49 03:13:27 21° 268° (W) 03:16:58 437.325
AIST 1 19 Apr 03:11:29 03:14:53 22° 288° (WNW) 03:18:12
MOZHAYETS 4 19 Apr 03:40:03 03:41:55 13° 63° (ENE) 03:44:01
STARS 19 Apr 03:41:57 03:46:18 67° 258° (WSW) 03:50:41 437.465
RS-15 19 Apr 03:46:32 03:54:37 21° 258° (WSW) 04:02:07 29.354- 29.394
Cosmos 2504 19 Apr 04:04:57 04:09:54 17° 282° (WNW) 04:14:14 435.465 / 435.565
KKS-1 19 Apr 04:06:20 04:09:58 24° 266° (W) 04:13:33 437.445
DANDE 19 Apr 04:08:17 04:12:02 16° 65° (ENE) 04:16:37 436.750
BEESAT 2 19 Apr 04:12:12 04:14:22 14° 111° (ESE) 04:16:44 435.950
CUSAT 1 19 Apr 04:17:27 04:22:45 24° 68° (ENE) 04:29:02 437.405
BEESAT 3 19 Apr 04:19:37 04:22:39 21° 113° (ESE) 04:25:48 437.485
Oscar 19 19 Apr 04:31:00 04:33:32 13° 299° (WNW) 04:35:49 437.125/150
Gurwin Techsat 1B 19 Apr 04:32:20 04:37:20 42° 290° (WNW) 04:42:17 435.225
AO-7 19 Apr 04:33:05 04:40:28 36° 96° (E) 04:48:01 29.400- 29.500
HORYU 2 19 Apr 04:39:09 04:43:35 55° 100° (E) 04:48:01 437.375
M-CUBED/EXP-1 PRIME 19 Apr 04:44:14 04:46:43 15° 57° (ENE) 04:49:24 437.505
GONETS M04 19 Apr 04:46:08 04:54:57 65° 78° (ENE) 05:03:44
ITAMSAT 1 19 Apr 04:47:18 04:51:38 27° 294° (WNW) 04:55:52 435.822/435.867
JAS-2 19 Apr 05:01:50 05:08:29 55° 98° (E) 05:14:21 435.910
Cosmos 2499 19 Apr 05:01:56 05:05:07 13° 54° (NE) 05:08:41 435.465 / 435.565
MOZHAYETS 4 19 Apr 05:13:57 05:18:36 75° 258° (WSW) 05:23:17
AUBIESAT-1 19 Apr 05:31:36 05:35:49 34° 64° (ENE) 05:40:12 437.475
BEESAT 2 19 Apr 05:48:04 05:52:06 54° 306° (NW) 05:56:12 435.950
DANDE 19 Apr 05:49:23 05:56:00 82° 80° (E) 06:04:14 436.750
BEESAT 3 19 Apr 05:56:37 06:00:28 38° 309° (NW) 06:04:21 437.485
CUSAT 1 19 Apr 05:59:06 06:05:57 72° 263° (W) 06:14:05 437.405
AIST 2 19 Apr 06:02:17 06:06:30 70° 120° (ESE) 06:10:48 435.215
M-CUBED/EXP-1 PRIME 19 Apr 06:16:17 06:20:58 78° 254° (WSW) 06:25:51 437.505
HORYU 2 19 Apr 06:17:04 06:19:51 16° 296° (WNW) 06:22:27 437.375
AO-7 19 Apr 06:25:34 06:33:35 53° 295° (WNW) 06:41:32 29.400- 29.500
CUBESAT XI-V 19 Apr 06:29:31 06:34:02 54° 74° (ENE) 06:38:36 437.345
CUTE-I 19 Apr 06:41:21 06:45:35 25° 93° (E) 06:49:57 437.470
GONETS M04 19 Apr 06:44:01 06:51:13 28° 277° (W) 06:58:05
JAS-2 19 Apr 06:47:33 06:53:06 26° 299° (WNW) 06:58:01 435.910
Cubesat XI-IV 19 Apr 06:48:29 06:53:01 29° 94° (E) 06:57:38 437.490
STRAND 1 19 Apr 06:50:58 06:55:52 48° 71° (ENE) 07:00:47 437.568
Cosmos 2499 19 Apr 06:52:14 07:00:19 70° 79° (ENE) 07:07:46 435.465 / 435.565
PRISM 19 Apr 07:01:16 07:05:28 83° 76° (ENE) 07:09:40 437.425
AUBIESAT-1 19 Apr 07:06:34 07:10:37 28° 261° (W) 07:14:44 437.475
DANDE 19 Apr 07:34:09 07:39:01 20° 271° (W) 07:44:09 436.750
AIST 2 19 Apr 07:42:51 07:45:36 16° 320° (NW) 07:48:17 435.215
CUSAT 1 19 Apr 07:44:46 07:48:11 13° 275° (W) 07:51:14 437.405
CUBESAT XI-V 19 Apr 08:09:04 08:11:53 15° 271° (W) 08:14:30 437.345
CUTE-I 19 Apr 08:20:52 08:25:53 42° 290° (WNW) 08:30:50 437.470
AO-7 19 Apr 08:21:23 08:24:41 13° 316° (NW) 08:27:33 29.400- 29.500
HO-68 19 Apr 08:26:01 08:29:16 14° 86° (E) 08:33:00 435.675
Cubesat XI-IV 19 Apr 08:28:20 08:33:12 36° 292° (WNW) 08:38:00 437.490
STRAND 1 19 Apr 08:31:32 08:35:22 20° 268° (W) 08:39:04 437.568
Cosmos 2499 19 Apr 08:46:47 08:52:40 22° 279° (W) 08:57:57 435.465 / 435.565
DOVE 4 19 Apr 09:22:05 09:26:24 30° 95° (E) 09:30:57 437.250
BRITE-PL 19 Apr 09:22:25 09:27:15 65° 101° (ESE) 09:32:27 437.365/2234.400
CINEMA 3 19 Apr 09:24:24 09:27:22 16° 90° (E) 09:30:36 145.822/145.860
PCSat 19 Apr 09:24:33 09:28:31 22° 108° (ESE) 09:32:39 145.827
COMPASS 1 19 Apr 09:25:52 09:29:03 21° 92° (E) 09:32:19 437.405
O/OREOS (USA 219) 19 Apr 09:31:04 09:35:14 36° 61° (ENE) 09:39:24 437.305
CANX-2 19 Apr 09:35:07 09:39:15 44° 98° (E) 09:43:21 2200.000
SEEDS 19 Apr 09:39:15 09:43:12 36° 97° (E) 09:47:09 437.485
CUTE 1.7 + AOD 2 19 Apr 09:45:21 09:49:34 52° 99° (E) 09:53:45 437.475
GOMX 1 19 Apr 09:47:28 09:52:25 76° 103° (ESE) 09:57:39 467.674
TIGRISAT 19 Apr 10:01:41 10:05:00 22° 66° (ENE) 10:08:30 435.000
UNISAT 6 19 Apr 10:02:28 10:05:53 23° 67° (ENE) 10:09:29 437.425
ZACube-1 19 Apr 10:09:59 10:12:42 16° 90° (E) 10:15:36 437.345
HO-68 19 Apr 10:10:58 10:18:13 83° 105° (ESE) 10:25:25 435.675
CUBEBUG 2 19 Apr 10:12:06 10:16:01 26° 93° (E) 10:20:04 437.445
AAUSAT CUBESAT 2 19 Apr 10:13:58 10:18:09 64° 100° (E) 10:22:18 437.432
Cosmos 2491 19 Apr 10:21:09 10:29:17 41° 71° (ENE) 10:37:34 435.465 / 435.565
POLYITAN 1 19 Apr 10:21:58 10:24:41 17° 66° (ENE) 10:27:32 437.675
Oscar 11 19 Apr 10:25:39 10:29:45 39° 97° (E) 10:33:50 145.826/435.025
DUCHIFAT 1 19 Apr 10:31:42 10:34:47 21° 68° (ENE) 10:37:59 145.980
